Location: Kruen
(47.5000°N, 11.5000°E)
Time: 09:23:47
(UTC+01:00)

ISS - Visible Passes

Search period start: 09 February 2026 00:00
Search period end: 19 February 2026 00:00
Orbit: 414 x 429 km, 51.6° (Epoch: 8 February)

Date Brightness Start Highest point End Pass type
(mag) Time Alt. Az. Time Alt. Az. Time Alt. Az.
12 Feb -1.1 06:20:10 10° S 06:22:40 20° SE 06:25:11 10° E visible
13 Feb -0.8 05:34:13 10° SSE 05:35:50 13° SE 05:37:27 10° ESE visible
14 Feb -2.8 06:21:57 10° SW 06:25:09 46° SSE 06:28:23 10° ENE visible
15 Feb -2.1 05:36:21 18° SSW 05:38:11 31° SE 05:41:11 10° E visible
16 Feb -1.4 04:51:32 20° SE 04:51:32 20° SE 04:53:48 10° E visible
16 Feb -3.8 06:24:33 11° WSW 06:27:45 81° NNW 06:31:06 10° ENE visible
17 Feb -3.7 05:39:34 39° SW 05:40:39 72° SSE 05:43:59 10° ENE visible
18 Feb -2.3 04:54:28 36° E 04:54:28 36° E 04:56:49 10° ENE visible
18 Feb -3.3 06:27:28 12° W 06:30:26 48° NNW 06:33:42 10° ENE visible
